Tracking 29892 objects as of 21-Nov-2024
HD Live streaming from Space Station
objects crossing your sky now

COSMOS 252 DEB

Track COSMOS 252 DEB now!
10-day predictions


NORAD ID: 19294
Int'l Code: 1968-097EE
Perigee: 736.8 km
Apogee: 1,717.4 km
Inclination: 62.2 °
Period: 109.9 minutes
Semi major axis: 7598 km
RCS: 0.0064 m2 (small)
Launch date: November 1, 1968
Source: Commonwealth of Independent States (former USSR) (CIS)
Launch site: TYURATAM MISSILE AND SPACE COMPLEX (TTMTR)

Note: This is SATELLITE DEBRIS
Your satellite tracking list
Your tracking list is empty




NASA's NSSDC Master Catalog

Two Line Element Set (TLE):
1 19294U 68097EE  24324.45932675  .00002918  00000-0  30075-2 0  9998
2 19294  62.2213 353.4821 0645290 183.0903 176.6020 13.10825882729827
Source of the keplerian elements: AFSPC